No identification:

 

2003 QZ30                                                      

Epoch 2003 June 10.0 TT = JDT 2452800.5                 MPC      

M 317.42727              (2000.0)            P               Q

n   0.26122579     Peri.  242.93994     +0.48049218     -0.87698817

a   2.4235874      Node   178.32350     +0.84815949     +0.46342117

e   0.6279669      Incl.    8.57172     +0.22305322     +0.12701404

P   3.77           H   17.3           G   0.15           U   5

Residuals in seconds of arc 

030709 644  0.0   0.2-    030825 557  0.1+  0.2+    030831 151  0.1-  0.1-  

030709 644  0.1-  0.1+    030825 557  0.1-  0.2+    030831 151  0.0   0.1+  

030709 644  0.1-  0.1-    030825 196  0.7+  0.2-    030831 151  0.0   0.0   

030709 644  0.1-  0.2+    030825 J87  0.3+  0.3+    030831 151  0.0   0.5-  

030709 644  0.2+  0.2+    030825 J87  0.7+  0.2+    030831 151  0.1+  0.1+  

030709 644  0.1-  0.1-    030825 J87  0.4-  0.2+    030831 151  0.3-  0.1-  

030825 704  0.1+  0.4-    030825 196  0.3+  0.3+    030831 151  0.2-  0.2-  

030825 704  0.2-  0.2-    030825 196  0.8+  0.0     030902 704  0.2+  0.2+  

030825 704  0.0   0.3-    030825 196  0.7+  0.4+    030902 704  0.3+  0.1-  

030825 704 (0.1-  3.7-)   030825 196  0.1-  0.0     030902 704  0.0   0.1+  

030825 704  0.2-  0.3-    030826 113  0.3-  0.1+    030902 704  0.5+  0.0   

030825 113  0.0   0.1+    030826 113  0.2-  0.1+    030902 704  0.4+  0.2-  

030825 952  0.1+  0.0     030826 113  0.5-  0.0     030902 196  0.1+  0.2+  

030825 636  0.2-  0.5+    030826 850  0.1-  0.0     030902 196  1.5+  0.5-  

030825 636  0.5-  0.4+    030826 850  0.1-  0.0     030903 379  0.1-  0.4-  

030825 118  0.4-  0.0     030826 704  0.2-  0.0     030903 379  0.3+  0.4-  

030825 636  1.5-  0.9-    030826 704  0.2-  0.3+    030903 379  0.0   0.6-  

030825 952  0.1+  0.4-    030826 704  0.4-  0.2+    030903 379  0.4-  0.5-  

030825 198  0.1+  0.1+    030826 204  0.3+  0.0     030903 379  0.4-  0.6-  

030825 118  0.0   0.1+    030826 204  0.0   0.4+    030903 151  0.6-  0.1-  

030825 113  0.3+  0.3+    030826 204  0.2-  0.2+    030903 151  0.4+  0.1-  

030825 198  0.0   0.3-    030826 196  0.0   0.3+    030903 151  0.1+  0.1+  

030825 113  0.2+  0.1+    030826 196  0.3-  0.1-    030903 151  0.0   0.1-  

030825 213  0.4+  0.4-    030827 196  0.7+  0.2+    030903 151  0.1+  0.3+  

030825 246  0.2+  0.3+    030827 670  0.1+  0.2+    030903 151  0.3+  0.2-  

030825 246  0.1+  0.1+    030827 670  0.0   0.1+    030903 151  0.3+  0.0   

030825 118  0.1-  0.1+    030827 670  0.3-  0.1+    030903 151  0.0   0.1+  

030825 246  0.1+  0.3+    030827 176  0.0   0.3-    030903 151  0.1-  0.2+  

030825 952  0.4+  0.3-    030827 176  0.0   0.3-    030903 151  0.1-  0.2-  

030825 246  0.2+  0.2+    030827 176  0.1-  0.4-    030903 163  0.3-  0.4+  

030825 213  0.1-  0.1-    030827 176  0.1-  0.5-    030903 163  0.1-  0.5+  

030825 952  0.1-  0.5-    030828 952  0.0   0.7+    030903 163  0.9-  0.2-  

030825 198  0.1+  0.4-    030828 952  0.3+  0.1+    030903 163  0.2-  0.4+  

030825 213  0.1+  0.0     030829 704  1.0-  0.5+    030903 163  0.1-  0.3+  

030825 952  0.1-  0.1-    030829 704  0.7-  0.2+    030905 379  0.2-  0.1+  

030825 198  0.3+  0.5-    030829 704  0.9-  0.2-    030905 379  0.3-  0.2+  

030825 213  0.5+  0.6-    030830 670  0.1+  0.1+    030905 J87  0.1-  0.6+  

030825 952  0.5+  0.4-    030830 670  0.0   0.3+    030905 J87  0.2-  0.2+  

030825 198  0.3+  0.4-    030830 170  0.0   0.1+    030905 J87  0.5-  0.3+  

030825 213  0.1-  0.1-    030830 170  0.2+  0.1+    030906 379  0.1+  0.2+  

030825 941  0.1-  0.2+    030830 170  0.0   0.2+    030906 379  0.0   0.0   

030825 213  0.3+  0.6-    030830 587  0.4-  0.2+    030906 379  0.6+  0.6-  

030825 941  0.1-  0.1+    030830 587  0.2-  0.4+    030906 379  0.1-  0.4+  

030825 941  0.0   0.1+    030830 587  0.2-  0.3+    030906 379  0.8+  0.4-  

030825 941  0.0   0.1+    030831 151  0.2-  0.3+                            

030825 941  0.1+  0.1+    030831 151  0.0   0.2-                            

 

NAKANO

         **** Don't distribute anyone except personal use only ****

                (C) Copyright 2003 OAA/ComputingSection

write mail from CFAD0::NAKANO on 2003-09-07 05:05:41(JST).





–ß‚è‚Ü‚·B